sat.trackr.live / text

‹ back to catalog

STARLINK-32333

NORAD 61626 · 2024-191F

PAYLOAD ACTIVE UNKNOWN

§ Identity

Operator
Country
US
Launch date
2024-10-23
Launch site
AFETR
Launch vehicle
Mass (kg)
RCS (m²)

Purposes: comms

External: N2YO · Heavens-Above · Gunter

§ Orbital elements

Epoch: 2026-05-25T04:31:02.273664Z

Period
94.27 min
Inclination
43.0001°
Eccentricity
0.0000755
Mean motion
15.27578245 rev/d
Perigee alt
482.5 km
Apogee alt
483.6 km
Semi-major
6,861.2 km
B*
8.1210e-6
RAAN
86.1365°
Arg perigee
253.8786°
Mean anomaly
106.1983°
Rev number
8,919

§ Raw data

STARLINK-323331 61626U 24191F   26145.18822076 -.00000038  00000+0  81210-5 0  99982 61626  43.0001  86.1365 0000755 253.8786 106.1983 15.27578245 89197

JSON: /api/v1/satellites/61626 · /tle

For live sub-satellite position, see the globe view (requires WebGL).

§ Visibility from observer

Set your observer location to see the next 7 days of passes ≥ 10°. The values pass through the URL so the page stays shareable.

No JS? Fill the form by hand. The geolocation button needs JavaScript.